Back to catalog

DUMMY MASS 2

AliveSciencePO
NORAD 24926·PAYLOAD·🇨🇳 China

Launched Sep 1, 1997 from Taiyuan Satellite Launch Center

Loading…

Next Passes (next 24 hours)

TLE

FreshSource: Space-Track

Epoch: Sep 14, 2026, 02:06 UTC

1 24926U 97048B   26257.08773778  .00000233  00000-0  22746-4 0  9993
2 24926  86.3300 286.9695 0007280   7.9735 352.1605 14.87138681572359

Track DUMMY MASS 2 in real time with AllMySat

Download on the App Store